Weather History for Ithaca, NY

Change the Weather History Date:

Thursday, March 27, 2014

  Actual Average Record
Temperature  
Mean Temperature 24 °F -  
Max Temperature 41 °F 45 °F 76 °F (1945)
Min Temperature 6 °F 26 °F 6 °F (2014)
Degree Days  
Heating Degree Days 42    
Moisture  
Dew Point 10 °F    
Average Humidity 54    
Maximum Humidity 87    
Minimum Humidity 29    
Precipitation  
Precipitation 0.00 in - - ()
Sea Level Pressure  
Sea Level Pressure 30.25 in    
Wind  
Wind Speed 8 mph (SSW)    
Max Wind Speed 16 mph    
Max Gust Speed 23 mph    
Visibility 10 miles    
Events      
Averages and records for this station are not official NWS values.
T = Trace of Precipitation, MM = Missing Value Source: NWS Daily Summary

Daily Weather History Graph

Daily Weather History Graph

Search for Another Location

Airport:

Trip Planner

Search our weather history database for the weather conditions in past years. The results will help you decide how hot, cold, wet, or windy it might be!

Date:

Astronomy

Mar. 27, 2014 Rise Set
Actual Time 6:56 AM EDT 7:26 PM EDT
Civil Twilight 6:28 AM EDT 7:54 PM EDT
Nautical Twilight 5:55 AM EDT 8:27 PM EDT
Astronomical Twilight 5:21 AM EDT 9:02 PM EDT
Moon 4:50 AM EDT (3/27) 4:07 PM EDT (3/27)
Length of Visible Light 13h 25m
Length of Day
12h 29m
Waning Crescent, 13% of the Moon is Illuminated
Mar 27
Waning Crescent
Mar 30
New
Apr 7
First Quarter
Apr 15
Full
Apr 22
Last Quarter

Hourly Weather History & Observations

Time (EDT) Temp. Windchill Dew Point Humidity Pressure Visibility Wind Dir Wind Speed Gust Speed Precip Events Conditions
12:35 AM 15.8 °F 5.1 °F 6.8 °F 68% 30.24 in 10.0 mi West 8.1 mph - N/A   Overcast
12:56 AM 15.1 °F 3.3 °F 6.1 °F 68% 30.31 in 10.0 mi West 9.2 mph - N/A   Overcast
1:56 AM 15.1 °F 4.2 °F 7.2 °F 71% 30.32 in 10.0 mi West 8.1 mph - N/A   Overcast
2:14 AM 15.8 °F 4.2 °F 6.8 °F 68% 30.27 in 10.0 mi WNW 9.2 mph - N/A   Mostly Cloudy
2:56 AM 15.1 °F 3.3 °F 6.1 °F 68% 30.33 in 10.0 mi West 9.2 mph - N/A   Partly Cloudy
3:56 AM 14.0 °F 5.1 °F 6.1 °F 71% 30.34 in 10.0 mi West 5.8 mph - N/A   Clear
4:56 AM 12.0 °F 5.9 °F 5.0 °F 73% 30.34 in 10.0 mi SSW 3.5 mph - N/A   Clear
5:56 AM 6.1 °F - 3.0 °F 87% 30.34 in 10.0 mi Calm Calm - N/A   Clear
6:29 AM 6.8 °F -0.1 °F 3.2 °F 85% 30.30 in 10.0 mi WSW 3.5 mph - N/A   Clear
6:56 AM 10.0 °F 3.6 °F 5.0 °F 80% 30.39 in 10.0 mi SW 3.5 mph - N/A   Clear
7:56 AM 12.0 °F 5.9 °F 6.1 °F 77% 30.37 in 10.0 mi SE 3.5 mph - N/A   Clear
8:56 AM 19.0 °F 12.3 °F 7.2 °F 60% 30.37 in 10.0 mi SSW 4.6 mph - N/A   Partly Cloudy
9:56 AM 21.0 °F 13.4 °F 6.1 °F 53% 30.35 in 10.0 mi South 5.8 mph - N/A   Mostly Cloudy
10:56 AM 26.1 °F 19.4 °F 8.1 °F 47% 30.34 in 10.0 mi Variable 5.8 mph - N/A   Clear
11:56 AM 30.0 °F 21.1 °F 12.0 °F 47% 30.30 in 10.0 mi SSE 10.4 mph - N/A   Clear
12:56 PM 34.9 °F 27.1 °F 14.0 °F 42% 30.28 in 10.0 mi SSW 10.4 mph - N/A   Partly Cloudy
1:56 PM 37.9 °F 30.0 °F 15.1 °F 39% 30.24 in 10.0 mi SSW 12.7 mph 17.3 mph N/A   Partly Cloudy
2:56 PM 37.9 °F 32.1 °F 13.1 °F 36% 30.21 in 10.0 mi South 8.1 mph - N/A   Overcast
3:56 PM 41.9 °F 35.0 °F 12.0 °F 30% 30.18 in 10.0 mi South 12.7 mph - N/A   Mostly Cloudy
4:56 PM 41.0 °F 33.9 °F 11.1 °F 29% 30.16 in 10.0 mi South 12.7 mph - N/A   Overcast
5:56 PM 38.8 °F 32.1 °F 12.0 °F 33% 30.15 in 10.0 mi SSE 10.4 mph - N/A   Overcast
6:56 PM 37.9 °F 30.5 °F 11.1 °F 33% 30.15 in 10.0 mi South 11.5 mph 18.4 mph N/A   Overcast
7:56 PM 37.9 °F 29.6 °F 13.1 °F 36% 30.12 in 10.0 mi South 13.8 mph - N/A   Overcast
8:56 PM 37.9 °F 28.9 °F 13.1 °F 36% 30.12 in 10.0 mi South 16.1 mph 23.0 mph N/A   Overcast
9:56 PM 38.8 °F 31.2 °F 14.0 °F 36% 30.10 in 10.0 mi South 12.7 mph 23.0 mph N/A   Overcast
10:56 PM 38.8 °F 31.6 °F 16.2 °F 40% 30.06 in 10.0 mi SSE 11.5 mph - 0.00 in   Overcast
11:56 PM 38.8 °F 32.1 °F 17.1 °F 41% 30.06 in 10.0 mi SSE 10.4 mph - N/A   Overcast